User: anonymous   Login
Location: Unspecified
(0.0000°N, 0.0000°E)
Time: 21:52:22
(UTC+00:00)
Language:

METEOR-M - Orbit

View from above orbital plane
View from above orbital plane
View from above satellite
View from above satellite

Ground track
Ground track

The orbit data is extracted from the following two-line orbital elements,

1 35865U 09049A   14331.54658073  .00000252  00000-0  13329-3 0  1126
2 35865 098.5299 013.8321 0002386 003.9985 356.1211 14.21957818269554
Epoch (UTC): 27 November 2014 13:07:04
Eccentricity: 0.0002386
inclination: 98.5299°
perigee height: 817 km
apogee height: 820 km
right ascension of ascending node: 13.8321°
argument of perigee: 3.9985°
revolutions per day: 14.21957818
mean anomaly at epoch: 356.1211°
orbit number at epoch: 26955

The dashed part of the orbit path shows where the satellite is in the earth's shadow,  

DLR